Regional Weather Roundup
Issued by NWS Columbia, SC

Home | Current Version | Previous Version | Text Only | Print | Product List | Glossary On
Versions: 1 2 3 4 5 6 7 8 9 10 11 12 13 14 15 16 17 18 19 20 21 22 23 24 25 26 27 28
000
ASUS42 KCAE 190210
RWRCAE
REGIONAL WEATHER ROUNDUP
NATIONAL WEATHER SERVICE COLUMBIA SC
900 PM EST WED JAN 18 2017

NOTE: "FAIR" INDICATES FEW OR NO CLOUDS BELOW 12,000 FEET WITH NO
SIGNIFICANT WEATHER AND/OR OBSTRUCTIONS TO VISIBILITY.

NOT ALL STATIONS ARE QUALITY CONTROLLED BY THE NATIONAL
WEATHER SERVICE. USE DATA WITH CAUTION...ESPECIALLY
DEWPOINT OBSERVATIONS.

SCZ001>056-GAZ040-063>065-077-190300-
...UPSTATE SOUTH CAROLINA...

CITY           SKY/WX    TMP DP  RH WIND       PRES   REMARKS
ANDERSON       CLEAR     62  36  37 NW5       30.06R
LIBERTY        CLEAR     50  38  64 CALM      30.05S
SPARTANBURG    CLEAR     57  18  21 N5        30.05R
CLEMSON        CLEAR     63  37  38 CALM      30.07R
GREENVILLE     CLEAR     59  30  33 N6        30.05S
GREENWOOD      CLEAR     56  44  64 CALM      30.07R
GREER          CLEAR     57  29  34 CALM      30.04S
ROCK HILL      CLEAR     50  28  42 N5        30.04S
CHESTER        CLEAR     54  27  35 NW5       30.05R
LAURENS        CLEAR     54  32  43 N6        30.05S


...CENTRAL SOUTH CAROLINA...

CITY           SKY/WX    TMP DP  RH WIND       PRES   REMARKS
COLUMBIA APT   CLEAR     57  47  69 SW5       30.03R
COLUMBIA OWENS CLEAR     59  48  67 CALM      30.04R
MCENTIRE ANGB  MOCLDY    56  46  69 CALM      30.03R
ORANGEBURG     CLEAR     65  58  78 W6        30.03R
SUMTER SHAW    CLEAR     57  46  65 NW3       30.01R
NEWBERRY       CLEAR     55  32  41 N5        30.08R
AIKEN          FAIR      59  46  63 W5        30.08R
BARNWELL       FAIR      66  61  82 W3        30.05R
MANNING        FAIR      55  41  58 CALM      30.02R
CAMDEN         FAIR      54  43  66 CALM      30.04R
LANCASTER      CLEAR     55  28  35 CALM      30.05R
WINNSBORO      CLEAR     59  34  38 W6        30.04R


...EASTERN AND COASTAL SOUTH CAROLINA...

CITY           SKY/WX    TMP DP  RH WIND       PRES   REMARKS
MYRTLE BEACH   CLEAR     59  52  77 N7        30.04R
N MYRTLE BCH   CLEAR     53  51  93 NE3       30.01S
CONWAY         FAIR      50  50 100 CALM      30.03R
MARION         FAIR      50  43  76 CALM      30.03R
HARTSVILLE     FAIR      59  30  33 N5        30.02S
FLORENCE       CLEAR     56  44  64 CALM      30.02S
DARLINGTON     CLEAR     50  42  74 CALM      30.03R
CHARLESTON APT PTCLDY    66  58  75 W5        30.03R
MOUNT PLEASANT FAIR      70  61  73 W5        30.03R
WALTERBORO     CLEAR     64  59  82 W5        30.05R
BEAUFORT       CLEAR     66  58  75 W6        30.05R


...EASTERN GEORGIA...

CITY           SKY/WX    TMP DP  RH WIND       PRES   REMARKS
AUGUSTA BUSH F CLEAR     66  59  78 W5        30.04R
AUGUSTA DANIEL CLEAR     69  50  50 VRB6      30.05S
THOMSON        CLEAR     66  56  69 NW3       30.11S
WASHINGTON     FAIR      64  52  63 W7        30.06F
CLAXTON        FAIR     N/A N/A N/A CALM      30.08S
SYLVANIA       CLEAR    N/A N/A N/A W5        30.06S
STATESBORO     CLEAR     68  61  78 W5        30.06S
SAVANNAH       CLEAR     69  57  65 W14       30.05F


...SOUTHERN NORTH CAROLINA...

CITY           SKY/WX    TMP DP  RH WIND       PRES   REMARKS
CHARLOTTE      PTCLDY    55  29  36 N9        30.04S
MONROE         CLOUDY    49  29  46 CALM      30.03R
WADESBORO      CLOUDY    44  37  76 CALM      30.04R
RUTHERFORDTON  PTCLDY    52  30  44 CALM      30.07S
ASHEVILLE      CLEAR     47  34  60 CALM      30.11R

$$




USA.gov is the U.S. government's official web portal to all federal, state and local government web resources and services.